Wind_Speed
30 30 30 30 30 30 30 30 30 30 30 30 30 31 31 32 32 33 33 34 35 35 36 36 36 35 35 35 35 34 34 33 32 31 30 28 27 26 25 24 24 24 25 26 26 26 26 25 25 26 27 28 27 27 26 26 28 29 29 28 28 29 29 28 27 26 26 25 25 24 24 24 24 24 24 24 23 22 21 20 19 18 18 17 18 18 19 20
32 31 32 32 32 32 32 32 32 32 32 32 32 32 32 33 34 34 35 35 36 36 37 38 38 38 38 37 37 37 36 36 35 34 32 31 29 28 27 26 25 25 26 26 27 27 27 27 27 27 28 29 29 29 28 28 29 29 30 29 28 29 29 28 27 27 26 26 25 25 25 25 25 25 25 25 24 23 23 22 21 21 20 20 20 20 21 22
34 34 33 33 33 33 33 33 33 33 33 33 33 33 34 34 35 35 36 36 36 37 38 39 39 40 40 40 39 39 39 38 37 36 35 34 32 31 30 28 27 27 27 27 27 28 28 28 28 28 29 30 30 30 30 30 30 31 30 29 29 29 29 29 28 27 27 26 26 26 26 26 25 25 25 25 25 24 24 24 23 23 22 22 22 22 23 23
35 35 35 35 35 35 35 34 34 34 35 35 35 35 35 35 36 36 37 37 37 37 38 39 40 41 41 41 41 41 41 40 39 38 37 36 34 33 32 31 30 29 28 28 28 29 29 29 29 29 30 31 31 31 32 32 32 32 32 31 29 29 29 29 29 28 27 27 27 26 26 27 26 26 26 26 27 26 25 25 25 24 24 24 24 25 25 26
36 36 36 36 36 37 37 36 36 36 36 36 36 37 37 37 36 37 37 38 38 38 38 39 40 41 42 42 42 43 42 42 41 40 39 38 36 36 35 34 32 31 31 30 30 30 30 31 31 31 31 31 32 32 32 33 33 33 33 32 30 29 29 30 30 29 28 27 27 27 26 26 26 26 27 28 28 27 27 26 26 26 26 26 27 27 28 29
36 37 37 37 38 38 38 38 38 38 38 38 38 38 39 38 38 38 38 39 39 39 39 39 39 40 42 42 43 43 44 43 43 42 41 40 38 37 36 36 35 34 33 32 31 31 32 32 32 32 33 33 33 33 33 33 33 34 33 33 31 30 29 30 30 30 29 28 27 27 26 26 26 27 27 28 29 28 28 27 26 27 27 27 28 29 30 30
36 36 37 38 38 39 39 39 39 40 39 39 39 39 40 40 40 39 39 39 40 39 39 39 39 40 41 42 43 43 44 44 44 44 43 42 40 39 38 37 37 36 35 34 33 33 33 33 33 34 34 34 34 34 34 33 33 34 34 33 32 31 30 29 30 30 30 29 28 28 27 26 27 27 28 29 30 29 28 27 27 27 27 28 28 29 30 30
35 36 37 38 38 39 40 40 40 41 41 41 41 40 40 41 41 40 40 40 40 40 40 40 40 40 41 41 42 43 44 44 44 45 44 43 42 41 39 38 38 38 37 36 35 34 34 34 34 35 35 35 35 34 34 34 34 34 34 33 32 31 31 30 30 30 30 30 30 29 27 27 27 28 29 30 31 31 30 29 28 29 29 29 29 30 30 31
34 35 36 37 38 39 39 40 41 41 41 41 42 42 42 42 42 41 41 41 41 41 41 41 41 41 41 42 42 43 43 44 44 45 45 45 44 42 41 40 39 39 39 38 37 36 35 35 35 36 36 36 36 35 35 35 35 34 35 34 33 32 32 31 30 30 30 31 31 30 28 26 27 29 30 31 31 32 31 30 30 30 30 30 31 32 32 33
33 34 35 35 36 37 38 39 40 41 41 42 42 43 43 43 43 43 42 42 42 42 42 42 42 42 42 42 43 43 43 44 44 45 45 45 45 44 43 42 41 40 41 40 39 38 37 36 36 36 37 37 37 37 36 36 36 35 35 35 34 32 32 32 31 31 31 31 32 32 30 27 28 30 30 31 32 33 33 32 32 31 31 32 32 33 34 34
32 32 33 34 35 35 36 37 38 39 40 41 42 43 44 44 44 44 44 44 44 43 43 43 43 42 43 43 43 44 43 44 44 45 45 45 46 45 45 44 43 42 42 42 41 40 39 38 37 37 37 38 38 38 37 36 36 36 36 36 35 33 32 32 32 31 31 31 32 33 32 29 29 31 31 32 33 33 34 34 33 33 33 33 33 34 34 34
31 32 32 33 33 34 34 35 35 36 37 38 39 41 42 43 44 44 44 44 45 45 44 44 44 43 43 44 44 44 44 44 45 45 45 46 46 46 46 45 44 43 43 43 42 41 40 40 39 38 38 38 38 38 38 38 37 37 37 37 37 35 33 32 32 32 31 31 32 34 35 32 30 32 33 33 34 35 35 35 35 35 35 35 35 36 36 36
32 32 32 32 33 33 33 33 33 33 34 34 35 37 39 41 41 42 44 44 44 45 45 45 45 45 45 46 45 44 44 45 45 45 46 47 47 47 47 46 45 45 44 43 43 43 42 41 40 40 39 39 39 39 39 38 38 38 39 39 38 37 35 32 31 31 31 32 31 32 37 36 31 32 35 35 36 37 37 37 36 36 36 36 37 37 38 39
34 33 33 33 32 32 32 32 31 31 31 31 32 32 35 38 38 39 42 43 43 44 45 45 45 46 46 47 47 46 45 45 46 46 46 47 48 48 48 46 46 46 45 44 44 43 43 43 42 42 41 40 40 40 39 39 39 38 39 40 40 39 37 34 31 30 30 32 31 30 36 40 35 32 35 36 37 38 39 38 37 38 38 38 38 39 40 40
37 37 36 35 34 34 33 32 32 31 31 30 30 29 31 34 35 36 38 40 41 43 44 44 45 45 46 48 48 47 47 47 47 47 47 48 48 49 48 47 47 46 46 45 45 44 44 44 44 43 42 41 40 41 41 40 39 39 40 41 42 41 39 36 33 30 30 31 31 30 33 41 40 35 35 35 36 38 40 39 39 40 39 39 40 41 41 42
39 39 39 38 38 37 36 35 35 34 33 31 30 29 29 31 32 32 34 36 37 39 41 43 44 44 46 48 49 48 48 47 47 47 48 48 49 49 48 48 48 47 47 46 46 45 44 44 45 44 44 43 41 41 41 41 41 40 40 42 42 43 42 39 35 32 31 30 31 30 31 39 42 39 36 36 36 38 41 41 41 41 41 41 41 42 43 43
42 41 41 41 41 40 39 39 38 38 37 35 34 32 31 31 31 31 31 33 34 35 36 39 40 41 44 47 48 48 47 48 48 49 49 49 49 49 48 48 48 48 47 47 47 46 45 45 46 46 46 44 42 43 42 42 42 41 41 42 43 44 44 42 37 34 32 31 31 29 30 36 42 41 39 38 39 40 42 43 43 43 43 43 43 44 45 44
44 44 43 43 43 43 42 42 41 40 40 38 37 36 34 33 33 32 32 31 32 33 33 35 36 37 40 43 45 46 46 47 49 49 50 50 49 49 48 48 48 48 47 47 47 46 46 46 46 47 47 44 43 45 43 42 42 43 42 42 44 44 45 45 40 37 33 31 32 30 28 34 42 45 42 41 42 43 45 45 47 46 45 45 46 46 46 45
46 46 46 46 46 45 45 44 44 43 43 42 40 39 38 37 36 35 34 33 33 33 33 34 34 34 37 39 42 43 44 46 48 50 50 50 49 48 48 48 47 47 47 47 46 46 46 46 47 49 48 45 44 46 45 43 43 44 44 43 44 45 47 47 43 40 36 31 33 32 29 33 41 46 47 45 45 47 48 48 50 50 48 49 48 47 47 47
49 48 48 48 48 48 48 47 47 46 46 45 44 42 41 40 39 38 37 36 35 35 35 34 34 34 36 37 38 40 41 44 46 49 50 49 49 48 48 47 46 46 46 46 45 46 46 46 48 50 47 46 46 46 45 44 44 45 45 45 45 45 47 49 45 43 39 33 33 34 31 34 40 43 48 50 48 50 50 50 53 54 52 52 50 49 48 48
51 50 50 50 50 50 50 49 49 49 48 48 47 46 45 43 42 40 39 38 37 37 37 37 36 36 37 38 38 38 39 41 44 47 48 48 48 47 47 46 46 45 46 44 44 45 45 46 50 50 47 48 48 47 47 46 46 46 46 46 47 47 48 49 48 45 42 36 34 36 32 34 40 41 47 53 52 53 52 54 57 56 55 54 53 52 50 48
53 52 52 52 53 52 51 51 51 51 50 50 50 49 48 47 45 44 42 40 40 40 39 39 39 39 40 40 40 40 40 40 42 45 46 46 46 45 45 45 45 44 44 44 43 43 43 46 50 49 48 49 49 48 48 48 47 48 48 48 48 49 49 48 49 47 44 39 35 37 34 34 39 41 46 53 55 57 58 59 60 58 56 56 55 54 51 49
54 54 54 54 55 55 53 53 53 53 52 52 52 52 51 50 48 47 44 41 41 43 42 41 41 41 42 42 43 43 41 42 43 44 45 44 45 44 43 44 44 43 44 44 42 42 43 46 49 49 49 49 49 49 50 49 49 49 49 49 49 51 50 47 48 49 46 42 38 39 36 34 38 41 46 52 55 60 63 63 62 60 58 58 57 55 52 50
56 56 55 55 56 56 55 55 55 55 54 54 54 54 53 52 50 49 47 42 40 43 45 45 43 42 44 44 45 45 44 44 45 46 47 45 45 45 44 44 44 44 45 44 43 42 44 47 48 50 50 49 49 50 52 51 49 49 50 52 51 51 51 47 48 48 46 44 42 43 38 34 38 40 44 52 55 60 65 65 65 64 62 61 59 56 53 52
57 57 57 57 57 57 55 56 56 56 56 55 55 55 54 53 52 51 49 44 39 42 46 47 46 45 46 47 48 49 48 47 48 49 49 48 47 46 45 46 45 46 47 46 44 43 46 49 48 50 51 51 51 52 54 54 50 49 51 54 52 50 51 49 48 46 44 43 44 47 44 35 36 39 40 48 53 57 65 68 68 67 65 62 59 56 55 54
59 59 59 59 59 58 56 56 58 57 57 57 56 55 54 54 54 52 51 45 38 40 46 47 48 49 50 51 51 52 50 49 51 51 51 50 49 48 47 48 48 48 49 48 46 44 48 52 50 51 52 52 53 54 56 55 51 49 51 54 53 51 51 49 48 46 43 44 44 49 51 40 33 36 39 45 50 54 63 70 70 68 66 63 59 57 55 55
61 61 61 61 62 60 57 57 58 58 59 59 58 57 55 55 54 53 52 42 33 37 44 45 48 50 52 54 55 55 52 51 52 52 52 51 50 50 49 50 50 50 50 50 47 47 50 52 52 53 52 53 55 55 56 56 52 50 51 54 54 52 51 48 48 47 46 45 43 49 57 46 32 33 38 41 47 53 59 66 69 67 66 64 61 58 56 57
63 63 63 64 65 63 60 59 60 60 60 60 59 58 57 56 54 54 51 36 26 33 40 43 47 50 54 57 58 58 56 54 55 54 54 53 52 51 51 51 52 51 52 52 49 50 52 53 54 54 54 55 56 56 56 56 54 52 52 53 53 52 50 49 49 49 49 46 43 50 58 50 36 34 38 41 47 53 56 60 65 67 68 66 63 60 58 58
64 65 65 66 68 66 63 62 62 63 62 61 61 59 57 56 54 53 47 31 25 35 41 43 47 51 56 59 60 60 58 57 57 56 57 56 54 54 54 54 54 53 54 53 52 54 54 54 55 55 56 57 57 57 56 57 56 54 53 53 53 54 52 52 52 51 52 47 44 51 55 52 42 34 37 43 46 51 53 56 62 67 69 68 66 63 61 60
64 65 66 68 70 69 67 66 66 65 65 64 62 61 59 57 54 50 41 31 33 42 43 44 47 51 56 59 60 60 59 59 59 58 58 58 57 56 56 57 57 57 56 54 53 55 55 54 54 56 57 58 58 59 58 58 58 56 56 56 57 57 56 56 54 55 55 48 46 52 52 53 46 35 38 44 44 47 51 55 62 67 69 70 69 66 63 61
66 66 67 68 71 72 70 70 69 69 68 66 65 63 61 58 54 47 37 34 43 46 45 49 51 54 57 58 59 60 60 61 61 61 60 59 58 57 58 60 60 59 58 56 56 58 57 56 57 59 61 61 62 62 61 60 60 60 60 61 61 60 59 57 56 58 56 48 46 49 49 49 43 35 39 43 42 45 50 55 63 67 70 73 72 67 64 62
71 69 68 69 71 73 73 73 73 73 72 70 69 66 63 60 52 43 38 42 48 46 48 55 57 56 58 56 57 59 60 61 61 62 61 60 59 57 59 60 61 62 61 60 62 62 61 60 62 63 64 64 64 64 63 62 63 63 63 64 63 61 60 57 55 55 52 45 43 44 45 44 38 36 41 43 43 45 51 59 65 66 70 73 72 68 65 64
74 72 71 71 73 75 75 75 76 77 76 75 73 69 68 62 49 42 43 48 51 51 53 58 58 59 60 58 58 60 61 61 62 62 62 61 59 57 60 61 64 66 66 65 66 65 63 61 63 66 66 65 65 66 66 64 64 63 62 64 61 60 62 58 52 51 48 43 43 44 45 42 37 37 40 41 43 46 54 63 66 67 70 74 73 71 68 66
76 74 74 74 75 77 78 78 79 79 79 79 77 74 71 62 51 48 49 50 55 59 58 59 60 60 60 59 60 62 63 63 62 63 63 60 58 57 59 62 64 67 68 68 66 67 65 59 60 67 67 65 66 67 65 63 62 60 60 61 59 61 67 61 54 52 50 47 45 47 45 39 37 39 39 41 43 48 58 66 67 69 72 75 76 74 72 69
79 77 77 77 78 79 80 82 82 82 82 81 80 78 70 60 56 57 55 53 58 61 61 62 62 60 58 58 60 61 64 64 63 64 63 60 58 57 57 60 64 67 69 70 69 70 67 58 57 64 65 64 65 64 64 63 61 59 59 60 61 64 67 65 59 57 57 54 47 47 46 40 41 42 41 45 47 51 63 69 68 71 73 76 77 76 73 71
81 80 80 79 81 82 84 85 86 86 85 84 84 77 65 58 59 60 58 59 62 62 65 66 64 61 59 58 60 62 65 67 65 65 63 61 59 57 57 61 65 68 70 72 74 74 72 64 60 63 63 63 65 65 65 64 63 64 63 64 66 66 66 67 66 61 62 60 50 47 49 44 44 44 43 48 50 54 66 70 69 72 74 75 77 76 74 71
84 84 82 81 83 86 87 88 89 89 88 89 85 74 63 61 61 61 61 63 66 68 70 69 65 64 63 61 61 62 67 68 66 66 66 64 60 57 60 62 65 69 72 75 78 78 78 73 66 65 66 66 67 67 65 64 67 69 67 66 67 67 66 68 69 65 65 65 54 48 51 49 43 42 43 46 50 57 66 69 70 72 73 74 75 74 72 70
87 86 84 83 86 90 91 92 92 91 92 91 83 72 67 67 66 66 67 67 70 73 73 69 66 66 66 64 63 64 68 68 66 67 68 66 61 57 60 64 66 70 73 77 81 81 82 80 72 69 70 70 69 66 65 66 69 71 69 68 68 69 69 69 72 70 67 68 61 51 50 46 37 34 38 43 50 59 64 66 68 69 69 70 71 71 70 69
90 89 85 85 90 93 94 96 96 96 96 91 82 75 72 72 70 71 71 71 72 73 72 69 68 69 68 66 66 68 70 69 69 69 68 66 62 57 60 65 68 71 75 80 84 83 85 86 79 73 74 74 70 67 68 69 71 72 71 70 70 71 72 73 73 72 70 72 70 59 46 36 31 32 38 47 54 57 60 62 64 65 66 68 69 70 70 70
94 92 88 87 92 95 97 100 101 100 97 92 85 80 76 75 75 75 75 76 76 75 73 72 73 73 70 68 69 69 70 70 69 70 69 65 63 61 62 67 71 74 77 81 83 83 86 89 85 79 77 74 70 69 71 72 73 74 74 73 73 75 78 79 76 74 76 77 77 69 51 31 29 36 44 53 57 56 58 60 61 64 67 69 71 72 72 74
99 97 91 90 95 98 100 104 104 102 100 93 87 83 81 80 79 78 79 80 80 79 78 76 76 76 74 73 73 71 72 72 69 70 69 65 64 63 62 67 73 75 78 81 82 83 87 90 90 86 79 73 69 70 71 72 72 74 74 75 77 80 83 84 81 78 81 83 79 77 64 39 31 41 50 55 57 57 59 62 63 67 70 72 75 76 77 78
103 100 96 96 99 101 103 105 105 104 101 94 89 87 86 84 81 80 81 82 82 82 82 81 79 78 77 77 76 76 76 74 70 70 68 65 62 61 62 69 74 75 78 81 81 83 88 92 93 90 84 76 70 69 69 71 72 72 72 74 78 80 81 83 84 80 81 82 77 78 73 48 35 47 56 56 57 59 63 66 68 71 73 76 79 80 81 82
108 104 101 101 102 104 107 108 105 104 100 95 94 93 91 88 84 82 82 84 86 86 85 84 82 82 80 79 78 78 78 76 73 71 70 68 64 63 68 72 73 75 77 78 79 83 88 92 93 91 88 80 73 70 70 71 73 73 74 75 76 76 77 80 81 79 79 77 74 80 77 52 39 53 61 60 62 65 67 71 73 75 78 81 84 85 86 87
112 111 108 106 106 109 111 109 107 105 102 99 98 97 95 93 88 84 84 86 88 88 88 86 85 84 83 82 82 81 80 80 79 76 77 75 70 68 72 74 76 78 79 80 83 87 90 91 92 92 88 80 72 70 70 70 73 74 73 72 73 73 76 78 79 79 78 74 74 81 77 60 53 63 67 67 69 70 73 77 79 80 83 85 87 89 90 91
116 116 114 112 112 113 114 113 111 110 107 103 102 100 99 97 93 89 88 89 90 89 89 89 89 88 87 87 86 84 83 85 85 84 83 81 77 75 76 79 82 83 84 86 88 91 92 93 92 92 89 82 73 69 71 73 75 73 70 70 72 74 76 79 79 80 79 78 81 84 81 74 72 70 68 71 76 78 80 83 85 85 86 87 88 90 91 93
120 120 118 116 115 117 119 120 118 113 108 107 107 107 105 102 97 95 94 93 91 90 91 91 91 91 91 91 89 88 88 89 91 91 87 83 82 82 82 84 85 86 88 90 91 93 95 94 92 91 89 86 79 74 76 79 78 75 73 73 75 76 77 80 80 79 82 88 90 87 86 88 84 73 70 78 87 88 86 86 88 90 90 90 91 92 94 98
125 124 122 119 118 119 123 127 125 117 110 110 112 111 108 105 102 101 99 96 93 93 94 93 92 92 92 92 92 91 91 92 94 92 87 85 86 87 88 89 90 91 92 92 94 96 97 96 93 91 91 91 86 83 83 85 84 82 81 81 79 79 81 83 81 79 85 95 97 91 90 95 90 79 78 87 94 92 90 91 94 95 95 94 95 97 100 103
128 127 126 124 123 122 124 129 130 124 118 117 118 116 113 109 107 104 102 100 98 97 97 96 95 95 94 94 96 96 96 96 97 93 90 90 93 93 93 94 95 95 94 95 97 98 100 100 95 93 95 95 92 90 90 93 93 90 89 87 83 82 84 82 80 82 88 98 100 95 96 99 93 85 89 98 99 95 96 99 100 100 99 99 101 103 105 107
132 130 129 129 129 127 126 128 131 131 126 124 123 121 117 113 110 108 106 106 105 102 101 100 97 97 98 99 101 102 102 100 98 95 95 97 98 98 100 101 100 98 98 98 99 101 103 102 97 97 100 98 94 91 94 99 98 94 94 91 84 84 87 85 85 87 93 99 99 98 102 103 95 93 101 106 103 100 102 104 104 103 104 106 107 108 109 111
135 133 132 132 133 132 130 129 132 134 131 129 127 125 122 118 115 113 112 112 110 107 106 104 100 100 103 105 107 107 103 100 99 99 101 103 104 104 104 103 101 101 101 100 101 103 105 104 101 102 104 102 95 94 100 105 102 102 100 90 83 88 93 94 94 94 96 101 102 104 107 104 98 101 109 111 107 105 108 109 108 108 109 110 111 111 113 115
137 137 136 136 137 136 134 133 134 135 134 134 132 130 127 123 119 117 117 117 116 113 112 109 106 106 109 111 111 108 104 103 105 106 107 109 109 108 107 105 105 105 105 104 105 106 107 107 106 108 111 108 101 101 107 110 110 111 102 88 88 97 102 100 97 95 101 107 108 110 110 106 103 106 111 114 111 109 112 113 112 113 113 113 114 116 117 117
140 140 139 140 140 140 138 137 138 138 138 138 135 131 129 126 123 122 123 123 121 118 117 115 112 113 115 115 113 110 108 111 113 113 113 114 113 112 111 110 110 111 111 111 110 110 111 111 111 113 116 113 108 108 113 116 119 113 99 94 101 107 108 104 96 96 107 115 115 116 114 111 109 109 112 114 113 113 116 116 115 117 117 117 118 119 119 121
Wind_Direction
267 269 270 271 273 275 276 277 278 279 280 281 283 285 286 286 286 285 284 283 281 277 274 271 270 269 270 271 273 274 276 277 278 279 280 281 282 283 283 285 287 291 295 299 302 306 309 312 314 316 320 324 328 330 332 334 337 339 340 340 342 345 345 342 339 335 331 329 330 332 334 337 339 341 340 338 338 338 336 333 330 328 326 324 322 321 322 323
266 267 268 269 271 273 274 275 276 278 279 280 282 283 285 286 287 287 287 286 285 283 281 278 274 272 272 272 273 274 276 277 278 279 280 280 281 282 282 283 284 287 291 295 298 301 305 308 312 314 317 320 324 327 328 331 333 336 338 337 338 341 343 340 337 334 330 327 325 325 327 330 333 336 334 332 333 334 333 330 328 325 322 320 319 318 318 319
265 266 267 268 269 270 272 274 275 276 278 279 281 282 284 285 286 286 287 287 286 286 285 283 281 278 276 275 275 275 276 278 279 280 280 281 281 282 283 283 284 285 288 292 295 298 302 305 309 311 314 317 321 323 325 327 330 333 335 335 334 337 340 339 336 333 329 325 322 321 322 325 329 331 330 329 330 332 332 329 327 324 321 319 317 316 315 316
262 264 265 266 267 268 270 272 273 275 276 278 279 280 282 283 283 284 285 286 286 286 286 285 284 283 281 279 278 277 278 279 279 280 281 281 282 282 283 283 284 285 288 290 293 297 300 303 306 309 312 314 317 320 322 324 327 330 332 333 332 334 337 337 335 332 328 324 321 320 320 322 326 328 327 326 328 330 330 328 327 323 320 319 317 317 316 315
260 262 263 265 266 267 268 270 271 273 274 276 277 278 279 280 281 281 282 284 284 285 286 286 285 285 284 283 281 280 280 280 280 281 282 282 282 282 283 284 284 285 287 289 291 294 297 300 303 306 309 311 314 317 319 321 324 327 329 331 330 331 334 334 334 332 329 324 320 319 320 321 324 325 325 325 326 328 328 327 326 323 321 320 319 318 317 316
258 260 262 263 264 266 267 268 270 271 273 274 275 277 277 278 279 279 279 281 282 283 284 285 285 285 284 284 283 282 281 281 281 282 282 283 283 283 283 283 284 284 285 286 289 292 295 298 300 303 306 308 311 314 316 318 321 323 326 328 327 327 329 331 332 330 328 324 320 318 320 321 321 321 322 323 324 327 328 327 326 324 323 323 321 320 319 318
258 258 259 261 263 264 265 266 268 269 271 272 274 275 276 277 277 277 278 279 280 281 283 284 284 285 284 284 283 282 282 281 281 282 282 283 283 283 283 283 283 283 283 284 286 289 292 295 297 300 302 305 308 310 313 315 318 320 322 325 324 323 324 327 328 328 326 323 320 319 321 323 320 319 321 322 323 326 327 326 326 325 325 325 324 323 322 321
258 258 258 259 260 262 263 264 265 267 268 269 270 272 274 275 276 276 277 277 278 280 281 282 284 285 285 284 283 283 282 281 281 281 281 282 282 282 282 282 282 281 282 282 283 286 289 292 295 297 299 302 304 307 310 312 315 317 319 321 322 320 320 322 325 325 324 322 320 319 322 325 319 317 320 321 322 324 324 324 324 325 325 326 326 325 325 324
259 259 259 259 259 259 260 261 262 264 265 267 268 270 271 272 274 275 276 277 277 278 280 281 283 284 285 285 284 284 283 282 281 281 280 281 281 281 281 281 281 281 281 281 281 283 285 288 291 293 296 298 300 303 306 309 311 314 316 318 319 318 317 318 321 323 322 320 319 318 322 325 317 316 318 319 321 321 321 321 321 322 324 325 325 325 325 325
260 260 260 260 260 259 260 260 261 262 263 264 266 267 269 270 272 273 275 276 277 278 279 280 281 282 284 284 285 285 284 283 282 281 280 280 280 280 280 280 280 280 280 280 280 281 282 284 287 290 292 295 297 299 302 305 308 311 313 315 317 316 314 314 317 320 321 319 317 316 319 323 316 314 316 316 318 317 317 318 317 319 321 323 323 323 323 323
264 264 263 262 262 263 262 263 263 263 263 263 264 265 267 268 269 271 273 274 275 277 277 278 279 280 282 282 283 284 284 284 283 282 281 280 279 278 278 278 279 279 279 279 279 279 280 282 284 287 289 291 294 296 299 302 304 307 310 312 314 315 312 311 313 316 319 318 316 313 313 318 315 312 313 314 314 314 314 315 315 316 317 318 319 320 320 320
267 267 267 266 266 266 267 267 267 268 267 266 266 265 266 267 268 268 270 271 272 274 275 277 277 278 280 280 281 282 282 282 282 282 281 279 278 277 277 277 277 277 278 278 278 278 279 280 282 284 286 289 291 293 296 299 301 304 306 308 310 313 312 309 309 311 315 316 316 312 308 310 312 308 308 310 311 310 310 310 311 311 312 313 315 316 317 318
267 268 268 269 269 270 270 271 271 272 272 272 272 270 270 270 269 269 269 269 269 271 272 274 275 276 278 278 279 280 280 281 281 281 280 279 278 277 276 276 276 276 276 277 277 278 278 279 280 281 283 286 288 290 293 296 298 301 303 305 307 309 311 309 306 306 309 313 316 313 306 306 310 306 303 305 306 305 305 306 306 306 307 309 310 312 314 316
267 268 268 269 270 271 271 272 273 273 274 274 274 275 275 274 275 274 273 272 271 270 270 271 272 274 276 277 277 277 278 279 279 279 279 279 278 277 276 275 275 275 275 276 277 277 277 278 279 280 281 283 285 288 290 293 295 298 300 302 304 306 308 308 307 303 302 308 313 314 307 305 309 307 302 303 304 303 302 302 304 304 304 306 307 308 311 313
268 268 268 268 269 270 271 272 272 272 273 273 274 275 276 277 278 278 277 277 275 274 273 272 271 272 273 274 275 276 276 277 277 277 278 277 277 277 276 276 275 275 275 275 276 277 276 277 278 279 280 281 282 285 288 290 292 295 296 298 300 303 305 306 308 304 300 303 307 312 308 305 308 309 305 306 305 303 302 303 304 303 304 305 305 307 309 311
269 269 269 269 270 270 271 272 272 273 273 274 275 275 276 278 279 280 280 280 280 279 278 276 274 273 272 272 273 274 274 275 276 276 276 276 276 276 276 276 275 275 275 275 276 276 277 277 277 278 279 279 281 283 286 288 290 292 294 296 297 299 301 303 306 304 302 302 303 308 309 304 305 306 307 308 307 304 303 305 304 303 305 305 306 307 309 310
269 270 270 271 271 272 272 273 273 274 275 275 276 276 276 278 281 282 283 284 284 283 282 280 278 277 275 273 274 274 275 275 275 274 274 274 275 275 275 275 275 275 275 275 275 276 277 277 277 277 277 278 280 281 283 285 288 290 291 293 295 296 298 300 304 302 301 303 301 305 307 303 301 302 306 308 306 304 304 305 304 304 305 306 307 308 308 308
267 268 270 271 271 272 273 273 274 275 275 276 277 278 278 278 280 282 284 286 287 287 287 285 283 281 278 276 275 276 276 276 275 274 274 274 274 274 274 274 274 274 274 274 274 275 276 276 276 276 276 277 278 279 281 283 286 288 289 291 293 294 294 298 302 300 299 301 298 301 305 301 299 301 305 306 305 304 305 305 303 303 305 306 307 307 307 306
263 265 267 268 269 271 272 273 274 274 275 276 277 278 279 279 280 282 283 285 287 289 290 289 289 286 281 279 278 278 278 276 276 275 274 274 274 274 274 274 274 274 274 274 274 275 274 275 275 274 276 277 277 277 279 282 284 285 287 289 291 292 292 295 300 299 298 299 295 297 302 298 297 300 303 304 303 303 304 303 301 301 303 304 306 306 305 305
263 264 265 266 267 268 270 271 273 274 275 276 276 277 278 279 280 281 282 284 286 288 290 291 292 290 286 284 282 281 279 277 276 275 275 275 275 275 274 274 274 274 274 274 275 274 274 275 274 274 276 277 276 276 278 280 281 282 284 287 289 289 289 293 298 298 297 298 294 294 299 296 295 300 302 302 303 303 303 300 298 300 302 303 303 304 304 304
265 265 265 266 266 266 267 269 270 272 274 275 276 276 276 277 278 280 281 283 285 286 289 290 291 290 290 289 288 285 281 278 276 276 275 276 276 275 276 276 276 276 276 276 275 275 275 276 274 274 276 276 276 277 278 279 280 281 283 286 287 287 288 292 295 297 297 296 293 291 296 295 294 299 300 301 304 303 301 300 298 300 301 302 302 303 303 302
266 266 266 266 267 267 267 268 268 269 271 272 274 275 275 276 277 278 279 282 284 285 287 288 289 290 290 290 289 287 284 280 277 276 276 277 276 276 277 278 278 278 279 278 277 277 277 276 275 276 276 276 277 278 278 279 279 281 283 285 286 285 288 292 294 296 297 294 291 289 293 294 294 300 300 301 304 303 302 300 298 300 301 302 302 302 303 301
266 266 266 267 267 268 268 268 268 269 269 270 272 273 274 274 275 276 277 279 283 285 286 286 287 288 289 289 287 285 283 281 279 279 278 278 279 279 280 279 280 280 279 278 278 278 278 276 276 277 276 276 278 278 278 278 279 282 283 285 285 285 289 291 293 296 296 293 289 287 291 293 295 301 301 299 303 303 301 298 297 300 302 301 301 301 302 301
266 266 267 267 268 268 269 269 269 269 269 270 271 272 273 273 274 275 276 276 279 283 285 285 285 287 287 285 283 281 280 280 281 280 281 282 283 284 284 282 282 281 280 280 279 280 279 277 277 277 278 278 279 279 279 279 280 283 285 284 284 286 289 291 293 295 295 292 287 286 289 290 295 302 301 300 303 304 299 297 298 302 302 300 299 300 301 301
265 266 267 267 268 268 269 270 270 270 270 269 270 270 271 272 273 274 275 276 277 279 282 284 285 285 283 281 279 278 279 281 280 280 282 284 285 287 287 286 285 283 282 283 282 282 281 278 277 279 280 280 280 281 280 281 282 285 285 285 286 288 290 292 293 293 292 289 286 287 287 289 297 301 298 298 301 298 294 295 299 301 300 297 296 297 299 299
264 265 266 267 267 268 269 270 270 271 271 270 270 269 270 270 272 273 274 277 279 277 278 282 283 283 281 279 277 277 278 279 279 281 283 284 286 287 287 288 287 286 286 286 286 285 281 280 281 281 281 282 282 282 282 284 285 286 286 287 289 289 290 292 291 290 289 285 286 288 286 290 301 300 298 299 296 290 290 296 300 300 296 294 293 295 296 297
264 264 265 265 266 267 269 270 270 271 271 271 271 271 271 271 272 272 275 282 287 279 277 279 280 279 279 279 278 277 277 277 278 280 282 283 285 286 286 286 286 286 287 287 287 286 283 283 284 283 284 284 283 283 284 286 287 287 287 287 289 289 289 289 288 288 287 286 289 287 286 293 301 299 299 296 289 285 288 296 300 296 293 291 292 293 295 297
266 266 266 266 266 267 269 270 270 271 271 271 272 273 273 273 273 274 278 287 296 286 278 274 274 276 277 277 277 277 278 277 278 279 280 281 282 284 284 284 285 286 286 286 287 285 283 284 284 285 286 285 284 285 286 286 287 287 286 286 287 287 287 287 287 288 287 289 292 287 288 296 300 302 297 285 281 282 286 293 295 292 291 291 291 293 295 298
269 268 268 267 267 268 269 269 269 270 270 271 272 272 273 274 275 277 281 289 297 288 277 272 271 272 273 274 275 276 277 278 278 279 280 280 281 282 282 282 283 283 283 284 284 282 281 281 283 284 284 283 284 284 285 285 286 287 285 285 284 284 285 287 289 289 288 291 293 289 292 297 299 302 292 281 281 284 286 291 291 289 289 290 290 293 297 298
273 272 270 269 269 269 269 269 269 269 270 270 271 271 272 274 275 278 283 289 288 283 278 275 272 269 269 271 273 275 277 278 278 278 279 280 281 281 282 282 281 281 281 282 281 279 279 280 281 282 282 282 283 283 284 285 286 286 285 284 283 285 288 289 291 290 289 293 294 292 294 295 297 298 284 281 284 285 289 291 288 287 288 289 291 294 297 298
276 275 274 273 272 272 271 270 270 270 270 270 271 271 272 273 275 282 289 289 281 279 279 277 271 268 268 269 271 273 275 276 277 277 277 278 279 280 281 281 281 280 280 280 279 278 279 280 281 281 282 282 283 284 285 285 285 285 285 286 287 289 290 290 291 289 290 295 294 292 292 292 296 294 283 283 287 288 290 288 285 286 288 289 291 294 296 298
275 276 277 276 275 274 274 273 272 271 271 270 270 271 273 274 280 289 291 282 278 277 277 274 272 271 271 271 272 272 273 274 274 275 276 276 278 279 279 280 281 280 279 280 279 279 280 281 282 282 282 283 284 284 284 284 284 286 288 289 291 293 291 290 290 289 293 296 293 290 289 290 295 292 287 289 292 292 290 286 285 286 288 289 291 294 296 298
272 274 276 277 277 276 276 275 274 273 272 271 271 272 273 276 286 293 287 280 277 274 271 271 272 273 273 274 275 274 273 273 274 274 275 276 277 278 279 280 280 280 281 280 280 280 280 280 282 282 282 283 284 283 283 284 285 288 290 291 293 294 291 289 289 290 292 292 290 288 288 292 296 292 290 294 295 293 289 286 287 288 289 290 291 294 296 297
269 271 273 275 276 277 277 276 275 274 273 273 273 273 274 280 288 288 283 279 275 271 270 269 269 270 271 274 276 276 276 275 275 275 275 277 279 279 280 281 281 282 282 281 281 281 279 279 281 281 282 283 283 283 285 286 287 289 291 292 294 292 290 291 292 292 290 287 287 288 291 297 297 292 294 295 291 289 285 284 286 288 289 289 291 293 295 297
267 268 269 272 274 275 276 276 275 275 274 274 274 274 277 284 286 281 279 276 274 273 272 269 268 268 269 270 272 274 275 275 276 276 277 279 280 280 282 283 283 282 282 283 283 281 280 280 279 280 282 282 282 284 286 287 289 291 291 292 292 290 291 293 293 291 289 287 287 290 293 299 297 295 297 294 289 287 284 283 285 287 288 289 291 293 295 297
266 267 267 269 271 273 274 274 275 275 275 275 274 276 280 283 281 279 277 276 274 274 272 270 270 271 271 270 271 271 272 273 273 275 277 278 278 280 283 283 282 282 283 284 283 282 282 281 278 278 280 280 281 283 285 287 290 290 290 290 289 289 291 292 291 290 289 288 289 292 295 297 297 297 297 293 291 287 284 284 286 287 289 291 292 293 295 297
266 266 266 267 269 270 271 272 273 273 274 273 274 276 279 278 278 278 277 274 274 273 272 273 275 275 274 273 273 273 273 273 273 273 274 274 275 278 281 281 282 283 284 284 282 282 282 281 280 280 280 280 280 281 284 288 289 288 288 289 289 290 290 290 290 289 288 288 291 295 296 298 299 298 294 290 287 282 280 283 286 287 289 290 291 293 295 296
265 265 266 267 267 268 268 269 270 271 271 272 273 276 276 275 276 275 274 273 273 272 273 275 277 276 275 275 276 275 275 275 275 274 273 273 274 275 277 278 279 281 283 282 281 282 283 283 282 281 281 280 280 282 286 287 286 287 288 289 290 290 290 290 290 289 289 289 293 295 297 301 304 301 296 288 281 278 280 283 285 286 288 289 291 293 295 296
265 265 265 266 266 266 267 268 268 269 270 271 274 274 273 273 273 273 273 273 272 272 273 275 275 274 275 276 276 275 275 275 275 275 275 275 276 276 276 276 277 277 278 279 280 282 283 283 283 281 280 279 281 283 284 284 285 286 288 288 289 289 290 289 289 289 290 291 293 294 295 303 309 304 297 288 280 280 283 285 286 288 290 291 293 294 295 295
265 265 265 265 266 266 266 266 266 267 269 271 272 273 273 273 272 271 271 271 271 272 273 273 273 274 275 275 275 275 275 274 275 276 276 277 278 277 276 275 275 275 275 276 278 280 281 282 281 280 278 279 281 282 282 284 285 286 288 288 289 289 288 288 288 290 291 291 293 294 295 303 308 299 291 284 282 285 286 286 288 289 291 292 293 294 294 294
265 265 265 264 265 265 265 265 266 267 268 270 272 273 273 272 271 270 270 270 271 271 272 273 273 274 275 274 274 274 274 274 274 275 276 277 278 277 276 276 275 275 276 276 277 278 279 280 280 279 278 279 280 281 282 284 285 286 288 289 289 288 288 289 289 290 290 290 292 294 294 301 305 293 285 283 285 287 285 286 287 288 290 291 293 294 294 294
264 265 265 264 264 264 265 265 266 267 268 270 271 272 271 270 270 270 270 270 271 271 272 273 274 274 274 274 274 274 274 275 274 274 275 275 275 277 277 276 276 276 276 276 278 279 278 278 279 279 280 280 280 281 283 284 285 285 285 285 285 286 288 289 289 289 289 290 292 292 293 299 301 288 284 286 287 287 286 286 287 288 290 292 293 294 294 294
264 265 265 264 264 265 264 265 266 268 269 270 269 269 268 269 269 269 270 270 270 271 271 272 273 274 274 274 274 274 274 274 275 275 275 274 274 274 275 275 276 276 276 277 278 278 278 278 279 280 280 281 282 283 284 285 284 282 281 282 283 285 287 287 288 289 289 290 294 292 292 298 296 284 285 290 290 289 287 287 288 291 292 293 294 295 295 296
263 263 264 264 265 265 264 265 267 268 268 268 268 269 269 269 268 268 269 269 269 269 270 271 272 273 274 274 274 274 275 275 276 275 275 274 273 272 273 274 275 275 276 276 276 276 277 278 279 280 281 282 284 286 286 285 282 281 282 283 284 285 286 286 288 289 289 292 294 291 290 294 290 285 289 293 291 289 287 288 291 292 293 293 295 296 296 297
262 262 262 263 264 264 265 266 266 266 267 268 268 268 268 268 269 268 267 267 267 268 269 270 270 271 272 273 274 275 276 276 276 274 273 273 273 273 274 274 274 275 275 275 274 275 275 276 278 281 283 284 286 286 285 283 282 282 283 284 284 285 287 288 288 290 291 291 288 287 290 290 287 288 293 294 291 288 288 290 292 292 292 293 295 297 298 299
261 261 262 262 262 264 265 266 265 266 267 268 267 267 267 268 268 267 266 267 268 269 269 269 269 270 271 273 274 275 275 275 274 273 273 274 274 274 273 273 273 273 273 273 274 274 275 276 278 281 283 285 285 284 283 282 282 282 282 282 283 285 286 287 287 289 291 288 285 287 290 289 287 290 294 293 291 290 290 292 292 292 293 296 298 300 301 302
259 261 263 263 262 262 264 265 267 267 267 266 265 265 265 266 266 267 268 270 270 269 269 269 269 270 271 272 273 273 272 272 272 273 275 275 274 273 272 271 271 271 272 273 274 275 276 277 278 280 282 282 283 283 282 281 281 281 280 279 280 282 283 284 286 288 287 286 286 288 290 288 289 293 295 293 291 293 295 295 295 296 298 300 302 303 303 302
260 261 263 263 262 262 263 266 269 269 266 265 265 266 266 266 267 268 270 270 270 270 270 270 270 270 270 270 270 270 270 270 271 273 275 274 273 273 272 271 270 270 272 273 274 275 276 277 279 280 280 280 280 281 281 281 280 279 279 279 279 281 282 285 288 288 287 286 287 290 291 289 292 297 297 293 293 297 298 298 298 300 301 303 303 303 302 302
261 262 263 264 263 263 263 265 267 268 268 267 268 268 269 269 269 268 268 269 270 270 270 270 270 270 270 269 269 268 268 269 271 273 273 272 272 271 271 270 270 271 272 273 274 275 276 277 279 279 279 279 281 282 283 281 280 280 279 280 282 285 287 288 287 286 286 287 289 291 291 291 296 300 296 294 297 300 299 299 300 302 303 303 302 302 301 301
261 262 263 263 262 262 262 263 265 267 268 269 269 270 271 271 270 269 268 269 270 269 268 269 270 270 269 269 268 268 270 272 272 272 271 270 269 269 269 271 272 273 274 274 275 276 277 279 280 280 280 281 283 284 283 282 283 282 281 283 289 290 288 288 287 288 289 290 290 291 290 292 298 299 297 298 300 299 299 300 301 303 304 302 300 300 300 300
260 261 261 261 261 262 262 262 263 265 266 268 269 271 272 272 271 269 268 268 269 269 270 270 270 269 268 268 269 271 273 273 271 269 269 268 269 271 272 274 275 275 276 277 278 278 280 281 283 283 283 284 285 285 283 284 284 283 284 290 293 289 286 287 289 291 292 290 289 290 291 295 298 298 298 298 297 298 299 300 302 304 302 299 297 298 299 299
259 259 260 260 260 261 262 262 263 264 265 268 270 271 271 270 270 269 268 269 271 271 270 270 269 268 268 269 271 273 272 271 270 270 270 271 272 273 274 275 276 277 278 279 280 281 282 283 283 283 283 285 285 284 284 284 283 284 289 293 290 286 287 291 291 291 291 290 289 291 294 296 298 299 298 295 295 298 299 300 302 303 299 296 296 298 299 299
Height
10844 10844 10844 10844 10844 10844 10844 10844 10844 10844 10844 10844 10844 10844 10844 10844 10844 10844 10844 10844 10844 10843 10843 10842 10842 10841 10841 10841 10840 10840 10840 10840 10840 10840 10840 10840 10840 10840 10840 10839 10839 10838 10837 10836 10835 10835 10834 10834 10834 10833 10832 10831 10831 10830 10829 10828 10827 10825 10823 10822 10821 10819 10817 10815 10814 10812 10811 10810 10809 10808 10807 10806 10805 10804 10803 10802 10801 10800 10799 10798 10797 10796 10795 10793 10792 10791 10790 10789
10841 10841 10842 10842 10842 10842 10842 10842 10842 10842 10842 10842 10842 10842 10842 10841 10841 10841 10841 10841 10841 10840 10840 10840 10840 10839 10839 10838 10838 10837 10837 10837 10837 10837 10837 10837 10837 10837 10837 10837 10836 10836 10835 10834 10834 10833 10832 10832 10831 10831 10829 10829 10828 10827 10827 10826 10825 10823 10822 10820 10819 10817 10816 10814 10812 10810 10809 10808 10807 10806 10805 10804 10804 10803 10801 10800 10799 10798 10797 10796 10795 10794 10793 10791 10790 10789 10788 10787
10838 10838 10839 10839 10839 10839 10839 10839 10839 10839 10839 10839 10839 10839 10839 10839 10838 10838 10838 10838 10838 10837 10837 10837 10837 10836 10836 10836 10835 10835 10835 10834 10834 10834 10834 10834 10834 10834 10834 10834 10834 10833 10833 10832 10831 10830 10830 10829 10829 10828 10827 10826 10825 10825 10824 10823 10822 10821 10820 10818 10817 10815 10814 10812 10810 10808 10807 10805 10805 10804 10803 10802 10802 10801 10799 10798 10797 10796 10795 10794 10793 10791 10790 10789 10788 10787 10786 10784
10835 10835 10836 10836 10836 10837 10837 10836 10837 10837 10836 10836 10836 10836 10836 10836 10836 10835 10835 10835 10835 10834 10834 10834 10833 10833 10833 10833 10833 10832 10832 10832 10832 10832 10832 10832 10832 10831 10831 10831 10831 10830 10830 10829 10828 10828 10827 10826 10826 10825 10824 10823 10822 10822 10821 10820 10819 10818 10817 10816 10814 10813 10811 10810 10808 10806 10804 10803 10802 10801 10801 10800 10799 10798 10797 10795 10794 10794 10793 10791 10790 10789 10788 10786 10785 10784 10783 10782
10832 10832 10832 10833 10833 10833 10834 10834 10834 10834 10834 10834 10833 10833 10833 10833 10833 10832 10832 10831 10831 10831 10831 10830 10830 10829 10829 10829 10829 10829 10829 10829 10829 10829 10829 10829 10829 10829 10828 10828 10828 10827 10827 10826 10826 10825 10824 10823 10823 10822 10822 10821 10820 10819 10818 10817 10816 10815 10814 10813 10811 10810 10809 10807 10806 10804 10802 10800 10799 10798 10798 10797 10796 10795 10794 10793 10792 10791 10790 10789 10788 10786 10785 10784 10782 10781 10780 10779
10828 10829 10829 10829 10830 10830 10831 10831 10831 10831 10831 10830 10830 10830 10829 10829 10830 10829 10829 10828 10828 10828 10827 10827 10827 10826 10826 10825 10825 10825 10825 10825 10825 10825 10825 10826 10826 10826 10825 10825 10825 10824 10824 10823 10823 10822 10821 10820 10820 10819 10819 10818 10817 10816 10815 10814 10813 10812 10811 10810 10808 10807 10806 10805 10804 10802 10800 10798 10797 10796 10795 10795 10794 10792 10791 10790 10789 10789 10788 10786 10785 10784 10782 10781 10780 10778 10777 10776
10825 10825 10825 10826 10826 10826 10827 10827 10828 10828 10828 10827 10827 10826 10826 10825 10825 10826 10825 10825 10824 10824 10824 10824 10823 10823 10822 10822 10821 10821 10821 10821 10822 10822 10822 10822 10822 10822 10822 10822 10821 10821 10821 10820 10820 10819 10818 10817 10817 10816 10815 10815 10814 10813 10812 10811 10810 10809 10808 10807 10806 10805 10804 10803 10802 10800 10798 10796 10794 10793 10793 10792 10790 10789 10788 10787 10786 10785 10784 10783 10782 10781 10779 10778 10777 10776 10774 10773
10820 10821 10821 10821 10822 10822 10822 10823 10823 10824 10824 10824 10824 10823 10823 10822 10822 10822 10822 10821 10821 10820 10820 10820 10819 10819 10818 10818 10817 10817 10817 10817 10817 10818 10818 10818 10818 10818 10819 10818 10818 10817 10817 10817 10816 10816 10815 10814 10813 10813 10812 10811 10811 10810 10809 10808 10808 10807 10806 10805 10804 10802 10801 10801 10800 10798 10796 10794 10792 10791 10791 10790 10787 10785 10785 10783 10782 10782 10781 10780 10779 10778 10776 10775 10774 10773 10771 10770
10816 10816 10816 10817 10817 10817 10818 10818 10819 10819 10820 10820 10820 10819 10819 10819 10818 10818 10818 10818 10817 10817 10817 10816 10816 10815 10815 10814 10813 10813 10813 10813 10813 10813 10813 10814 10814 10814 10814 10814 10814 10814 10813 10813 10813 10813 10812 10811 10810 10809 10809 10808 10808 10807 10807 10806 10805 10805 10803 10802 10801 10800 10799 10798 10797 10796 10794 10792 10790 10788 10789 10788 10785 10782 10781 10780 10779 10778 10777 10776 10775 10774 10773 10772 10771 10769 10768 10767
10812 10812 10812 10812 10812 10813 10813 10813 10814 10814 10815 10815 10815 10815 10815 10815 10814 10814 10814 10814 10813 10813 10813 10813 10812 10812 10811 10810 10809 10809 10809 10809 10809 10809 10809 10809 10809 10810 10810 10810 10810 10810 10809 10809 10809 10809 10808 10808 10807 10806 10806 10805 10804 10804 10803 10803 10802 10802 10801 10800 10799 10798 10796 10795 10794 10793 10792 10789 10787 10785 10785 10786 10782 10780 10779 10777 10776 10774 10773 10773 10772 10771 10770 10769 10768 10766 10765 10763
10809 10809 10809 10808 10808 10808 10809 10809 10809 10810 10810 10811 10811 10811 10811 10811 10811 10811 10811 10810 10810 10809 10809 10809 10808 10808 10807 10806 10806 10805 10804 10804 10804 10804 10804 10804 10804 10805 10805 10805 10806 10805 10805 10805 10805 10805 10805 10804 10804 10803 10802 10801 10801 10800 10799 10799 10799 10798 10798 10797 10796 10795 10794 10792 10791 10790 10789 10787 10785 10782 10781 10783 10780 10777 10776 10774 10773 10771 10770 10769 10768 10768 10767 10765 10764 10763 10762 10761
10806 10806 10805 10805 10805 10805 10805 10805 10805 10806 10806 10806 10807 10807 10806 10806 10807 10807 10806 10806 10806 10805 10805 10804 10804 10804 10803 10802 10802 10801 10801 10800 10799 10799 10799 10799 10799 10799 10800 10800 10801 10801 10800 10800 10800 10801 10801 10800 10800 10800 10799 10798 10797 10796 10795 10795 10795 10794 10794 10794 10794 10793 10791 10790 10788 10786 10785 10784 10783 10779 10776 10778 10779 10775 10773 10772 10770 10769 10767 10766 10766 10765 10764 10763 10762 10760 10759 10758
10803 10802 10802 10801 10801 10801 10801 10801 10802 10802 10802 10803 10803 10803 10803 10802 10802 10802 10802 10802 10802 10802 10801 10801 10800 10800 10799 10797 10797 10797 10797 10796 10795 10795 10794 10794 10793 10793 10794 10795 10796 10796 10796 10796 10796 10796 10796 10796 10796 10796 10795 10795 10794 10793 10792 10791 10791 10790 10789 10789 10790 10790 10790 10788 10786 10784 10782 10781 10780 10778 10771 10771 10776 10774 10770 10769 10768 10766 10764 10763 10763 10762 10761 10760 10758 10757 10755 10754
10799 10799 10798 10798 10798 10798 10797 10798 10798 10798 10798 10799 10799 10800 10799 10798 10798 10799 10798 10797 10798 10798 10797 10797 10796 10796 10795 10793 10792 10793 10792 10792 10791 10790 10789 10789 10788 10788 10789 10790 10791 10791 10791 10792 10792 10792 10792 10792 10792 10791 10791 10791 10790 10790 10789 10787 10787 10787 10785 10784 10785 10785 10786 10787 10785 10782 10780 10778 10777 10777 10769 10763 10769 10771 10767 10766 10765 10762 10761 10760 10760 10758 10757 10757 10755 10753 10752 10751
10795 10795 10794 10794 10794 10794 10794 10794 10794 10794 10794 10795 10795 10796 10795 10794 10794 10795 10794 10794 10793 10793 10793 10793 10792 10792 10791 10789 10788 10788 10787 10787 10786 10785 10784 10783 10783 10782 10783 10784 10785 10786 10786 10787 10787 10787 10787 10788 10787 10787 10787 10787 10787 10786 10785 10784 10783 10783 10781 10780 10780 10780 10781 10783 10783 10781 10778 10776 10774 10774 10769 10760 10760 10764 10763 10762 10761 10758 10756 10755 10755 10754 10753 10752 10750 10749 10747 10746
10791 10791 10791 10791 10790 10790 10790 10790 10790 10790 10790 10791 10792 10792 10792 10791 10791 10791 10790 10790 10789 10789 10789 10788 10788 10789 10787 10784 10784 10783 10782 10782 10781 10780 10779 10778 10778 10777 10778 10779 10779 10780 10781 10782 10782 10782 10783 10783 10782 10782 10782 10782 10783 10782 10781 10780 10779 10779 10778 10776 10775 10775 10775 10777 10779 10778 10775 10774 10771 10771 10768 10759 10754 10756 10758 10757 10756 10753 10751 10750 10749 10748 10748 10747 10745 10744 10742 10741
10787 10787 10787 10786 10786 10786 10786 10786 10786 10786 10786 10787 10788 10788 10789 10788 10787 10788 10787 10786 10786 10785 10785 10784 10783 10784 10783 10781 10779 10778 10778 10777 10776 10775 10774 10773 10773 10773 10773 10773 10774 10775 10775 10776 10777 10777 10778 10778 10777 10777 10776 10777 10778 10777 10777 10776 10774 10774 10774 10773 10771 10770 10770 10771 10774 10774 10773 10771 10769 10769 10767 10759 10751 10750 10753 10752 10750 10748 10745 10745 10743 10742 10742 10741 10740 10738 10737 10735
10782 10782 10782 10782 10782 10782 10782 10781 10781 10781 10781 10782 10783 10783 10785 10785 10784 10784 10784 10784 10783 10782 10782 10780 10780 10780 10778 10776 10775 10774 10773 10772 10770 10769 10768 10768 10768 10768 10768 10768 10769 10769 10770 10771 10771 10772 10773 10773 10772 10771 10771 10773 10773 10772 10772 10772 10770 10769 10769 10769 10767 10765 10764 10766 10769 10769 10769 10767 10764 10765 10766 10759 10749 10745 10747 10748 10745 10742 10740 10739 10737 10736 10737 10736 10735 10734 10732 10731
10777 10777 10777 10777 10777 10777 10777 10777 10777 10777 10776 10777 10779 10779 10779 10781 10781 10781 10780 10780 10779 10779 10778 10777 10777 10776 10773 10772 10770 10769 10768 10767 10765 10764 10763 10763 10763 10763 10763 10764 10764 10764 10764 10765 10766 10767 10767 10768 10767 10765 10765 10768 10768 10766 10767 10767 10766 10764 10764 10764 10763 10761 10759 10760 10763 10763 10764 10764 10760 10760 10762 10758 10749 10742 10740 10742 10741 10738 10736 10734 10730 10730 10732 10731 10730 10729 10727 10726
10771 10772 10772 10771 10772 10772 10772 10772 10772 10772 10771 10772 10773 10774 10774 10775 10777 10777 10776 10776 10776 10775 10774 10774 10774 10772 10770 10768 10766 10765 10763 10762 10760 10758 10758 10758 10758 10758 10758 10759 10759 10759 10759 10760 10762 10762 10762 10763 10760 10758 10761 10762 10761 10761 10761 10762 10761 10760 10760 10760 10759 10757 10755 10754 10757 10758 10759 10761 10756 10754 10758 10754 10747 10743 10736 10734 10735 10733 10731 10728 10725 10725 10727 10726 10725 10724 10723 10721
10766 10766 10766 10766 10766 10766 10766 10767 10767 10767 10767 10766 10766 10768 10769 10770 10772 10772 10773 10773 10772 10772 10771 10770 10770 10768 10766 10764 10763 10761 10759 10757 10755 10753 10752 10753 10753 10754 10754 10754 10754 10754 10754 10755 10757 10756 10757 10757 10752 10753 10756 10754 10755 10756 10756 10756 10756 10755 10755 10755 10753 10752 10753 10751 10751 10753 10753 10756 10754 10750 10753 10749 10743 10741 10733 10727 10726 10725 10724 10721 10718 10719 10720 10720 10719 10718 10718 10716
10760 10760 10760 10760 10760 10760 10761 10762 10761 10761 10762 10761 10761 10762 10763 10765 10766 10767 10769 10770 10768 10767 10768 10766 10765 10764 10762 10761 10759 10756 10754 10752 10749 10748 10747 10748 10748 10749 10749 10749 10749 10749 10749 10750 10751 10751 10753 10750 10746 10747 10749 10748 10749 10749 10749 10750 10750 10750 10750 10750 10748 10746 10749 10749 10746 10747 10748 10751 10750 10746 10749 10746 10739 10737 10730 10723 10720 10714 10714 10712 10709 10713 10714 10712 10712 10711 10712 10711
10754 10754 10754 10754 10753 10754 10755 10756 10755 10755 10755 10756 10755 10755 10757 10759 10760 10762 10764 10767 10766 10762 10762 10762 10761 10760 10758 10757 10754 10751 10749 10746 10744 10743 10742 10743 10743 10744 10745 10744 10744 10744 10743 10743 10745 10747 10746 10743 10740 10740 10742 10742 10743 10743 10742 10743 10744 10745 10745 10744 10743 10741 10744 10746 10742 10742 10743 10744 10745 10743 10746 10745 10737 10734 10725 10718 10717 10708 10701 10700 10700 10704 10707 10704 10703 10703 10704 10703
10748 10747 10748 10748 10747 10748 10749 10749 10749 10749 10749 10749 10749 10749 10751 10752 10754 10756 10758 10763 10765 10760 10756 10756 10756 10757 10753 10750 10748 10745 10744 10742 10740 10738 10736 10739 10739 10739 10740 10739 10739 10738 10736 10738 10740 10742 10739 10736 10735 10733 10734 10736 10736 10735 10734 10736 10739 10740 10739 10736 10736 10737 10737 10740 10740 10739 10738 10738 10738 10736 10741 10744 10737 10735 10725 10711 10711 10705 10691 10687 10691 10695 10696 10695 10695 10695 10696 10696
10742 10741 10741 10741 10741 10742 10743 10743 10742 10742 10742 10743 10743 10743 10745 10746 10748 10749 10751 10757 10761 10758 10753 10750 10750 10750 10747 10744 10741 10738 10739 10738 10735 10732 10733 10734 10734 10736 10735 10734 10734 10732 10731 10733 10735 10737 10732 10727 10730 10729 10728 10729 10730 10729 10726 10728 10735 10736 10732 10727 10730 10733 10731 10733 10735 10734 10735 10733 10732 10728 10732 10741 10739 10734 10727 10712 10705 10700 10687 10682 10685 10688 10687 10687 10688 10689 10690 10689
10735 10735 10735 10734 10734 10735 10737 10737 10735 10735 10735 10735 10736 10737 10739 10740 10741 10743 10745 10750 10756 10755 10750 10747 10745 10742 10738 10736 10734 10732 10735 10734 10729 10728 10729 10729 10729 10731 10730 10729 10728 10727 10726 10727 10730 10731 10724 10720 10723 10724 10723 10723 10723 10721 10718 10722 10729 10730 10726 10721 10723 10726 10726 10728 10727 10728 10730 10728 10729 10723 10718 10735 10741 10731 10724 10716 10702 10693 10687 10682 10680 10680 10679 10679 10681 10683 10684 10683
10729 10729 10728 10728 10726 10727 10730 10731 10729 10729 10729 10728 10729 10731 10733 10734 10736 10737 10739 10745 10751 10750 10747 10744 10740 10736 10731 10728 10726 10725 10728 10729 10725 10724 10725 10725 10725 10725 10725 10724 10722 10722 10722 10722 10725 10724 10718 10715 10716 10716 10718 10718 10715 10714 10713 10715 10720 10723 10721 10716 10716 10717 10719 10721 10720 10721 10723 10723 10728 10718 10708 10725 10740 10730 10720 10713 10697 10685 10685 10682 10675 10671 10669 10670 10673 10676 10678 10677
10723 10722 10722 10721 10718 10720 10723 10723 10722 10722 10721 10722 10723 10725 10727 10729 10730 10731 10735 10741 10746 10745 10743 10740 10735 10731 10725 10721 10719 10717 10720 10723 10721 10720 10719 10719 10721 10720 10720 10718 10716 10717 10716 10716 10719 10717 10713 10712 10709 10709 10711 10710 10708 10708 10708 10708 10711 10715 10714 10712 10710 10710 10712 10714 10714 10715 10715 10719 10724 10712 10702 10715 10730 10727 10715 10706 10695 10684 10681 10679 10670 10663 10659 10660 10664 10668 10671 10671
10716 10716 10716 10714 10711 10712 10715 10715 10715 10714 10714 10715 10716 10718 10721 10723 10725 10727 10731 10738 10741 10739 10737 10734 10730 10726 10720 10714 10712 10711 10713 10715 10715 10715 10713 10713 10715 10715 10714 10712 10711 10711 10709 10711 10713 10708 10707 10707 10705 10704 10703 10701 10701 10702 10702 10702 10703 10706 10706 10705 10704 10703 10706 10707 10708 10708 10707 10715 10718 10707 10701 10706 10718 10722 10707 10696 10693 10684 10678 10675 10665 10656 10651 10650 10654 10660 10664 10664
10709 10710 10709 10707 10704 10704 10707 10707 10706 10706 10706 10708 10709 10711 10714 10717 10720 10724 10729 10734 10733 10729 10728 10728 10724 10719 10713 10709 10708 10707 10707 10708 10708 10708 10707 10707 10708 10708 10707 10705 10703 10704 10704 10706 10705 10700 10701 10703 10701 10699 10696 10694 10694 10694 10695 10696 10696 10696 10696 10696 10696 10697 10700 10700 10702 10699 10699 10709 10711 10702 10700 10699 10707 10713 10699 10690 10691 10682 10675 10670 10658 10649 10645 10641 10645 10652 10655 10656
10702 10702 10702 10701 10698 10696 10698 10698 10697 10697 10698 10699 10700 10703 10706 10710 10715 10721 10728 10728 10721 10720 10722 10718 10714 10711 10706 10705 10704 10703 10701 10701 10700 10700 10701 10701 10702 10703 10701 10697 10696 10696 10696 10698 10696 10693 10695 10696 10694 10692 10689 10688 10688 10687 10688 10688 10687 10687 10687 10686 10687 10689 10692 10693 10693 10690 10691 10702 10703 10696 10695 10694 10699 10701 10690 10686 10687 10681 10673 10663 10651 10644 10639 10634 10637 10644 10647 10647
10694 10694 10695 10694 10690 10687 10689 10690 10688 10687 10689 10689 10691 10695 10698 10702 10712 10720 10722 10718 10712 10714 10713 10705 10703 10703 10700 10700 10700 10697 10695 10695 10693 10693 10694 10694 10696 10697 10694 10691 10689 10686 10688 10690 10687 10686 10690 10690 10687 10684 10682 10681 10681 10680 10680 10680 10679 10679 10680 10678 10678 10680 10680 10682 10685 10682 10686 10693 10692 10689 10688 10689 10694 10692 10684 10682 10682 10677 10667 10654 10645 10641 10635 10629 10630 10635 10639 10639
10686 10687 10687 10686 10683 10679 10679 10679 10678 10677 10678 10678 10681 10686 10688 10696 10712 10718 10713 10708 10704 10703 10701 10696 10695 10694 10693 10695 10695 10691 10689 10689 10687 10686 10686 10688 10691 10692 10689 10686 10682 10677 10678 10680 10678 10678 10682 10684 10681 10674 10674 10676 10673 10671 10671 10673 10672 10673 10673 10670 10671 10670 10664 10669 10676 10677 10680 10684 10682 10681 10682 10685 10689 10685 10679 10678 10676 10670 10658 10645 10639 10637 10631 10624 10624 10627 10630 10631
10678 10680 10679 10678 10676 10671 10669 10668 10667 10668 10667 10667 10671 10675 10680 10694 10709 10709 10703 10701 10693 10688 10689 10688 10686 10686 10687 10689 10688 10685 10682 10681 10681 10679 10679 10682 10685 10686 10684 10679 10675 10671 10668 10668 10669 10668 10670 10679 10677 10664 10665 10669 10665 10663 10663 10664 10666 10668 10666 10663 10664 10660 10650 10655 10667 10668 10669 10674 10675 10675 10675 10681 10682 10678 10676 10674 10670 10663 10649 10638 10634 10631 10626 10621 10619 10620 10622 10623
10670 10671 10671 10671 10667 10664 10660 10656 10656 10657 10656 10658 10659 10664 10679 10695 10699 10695 10695 10692 10683 10679 10679 10676 10676 10678 10682 10683 10681 10678 10674 10672 10674 10671 10672 10677 10678 10680 10679 10674 10668 10663 10659 10657 10658 10656 10658 10671 10672 10660 10659 10661 10657 10657 10656 10656 10658 10660 10659 10657 10655 10650 10643 10644 10653 10656 10655 10660 10669 10669 10669 10676 10673 10670 10672 10665 10661 10656 10639 10630 10630 10625 10621 10617 10614 10613 10614 10615
10661 10662 10662 10663 10660 10654 10650 10646 10645 10645 10646 10647 10647 10660 10681 10689 10683 10682 10685 10681 10675 10673 10667 10664 10668 10671 10674 10675 10673 10671 10666 10663 10666 10666 10666 10669 10671 10674 10674 10668 10661 10655 10652 10647 10642 10642 10645 10657 10663 10657 10655 10654 10651 10652 10651 10651 10650 10649 10650 10649 10644 10642 10640 10635 10636 10643 10641 10643 10658 10663 10662 10669 10667 10664 10665 10656 10651 10646 10629 10622 10624 10619 10615 10613 10608 10605 10605 10605
10650 10651 10653 10656 10652 10643 10639 10637 10635 10634 10635 10633 10639 10661 10678 10676 10672 10673 10673 10670 10666 10661 10655 10657 10663 10664 10664 10666 10667 10664 10656 10655 10660 10660 10658 10660 10665 10670 10667 10661 10655 10649 10646 10638 10629 10628 10629 10638 10651 10652 10648 10648 10646 10646 10648 10648 10642 10638 10640 10641 10636 10634 10633 10627 10623 10629 10629 10628 10645 10656 10654 10659 10662 10658 10655 10648 10641 10634 10622 10618 10618 10614 10610 10606 10602 10599 10598 10598
10638 10639 10644 10648 10641 10632 10628 10625 10624 10624 10621 10621 10637 10660 10666 10662 10663 10662 10659 10658 10656 10650 10647 10652 10656 10655 10654 10657 10659 10656 10648 10648 10652 10651 10650 10653 10660 10666 10661 10653 10648 10644 10639 10629 10619 10618 10615 10618 10635 10644 10639 10638 10641 10642 10645 10642 10634 10630 10632 10633 10630 10626 10624 10621 10614 10616 10618 10616 10629 10647 10649 10651 10654 10650 10645 10638 10629 10621 10617 10615 10612 10609 10604 10599 10596 10593 10592 10592
10625 10627 10637 10639 10627 10619 10619 10614 10611 10610 10609 10616 10635 10650 10651 10651 10653 10651 10648 10647 10644 10641 10641 10645 10645 10642 10645 10649 10648 10644 10641 10641 10642 10640 10642 10646 10652 10659 10655 10645 10640 10636 10630 10619 10611 10611 10606 10602 10617 10632 10629 10627 10635 10639 10636 10633 10628 10625 10626 10626 10624 10619 10614 10612 10608 10608 10609 10606 10612 10629 10643 10649 10647 10642 10635 10625 10617 10613 10610 10608 10605 10601 10597 10592 10589 10588 10586 10585
10611 10613 10625 10628 10614 10608 10608 10600 10596 10598 10601 10613 10628 10635 10639 10640 10640 10639 10638 10635 10633 10632 10632 10635 10633 10631 10637 10639 10635 10635 10633 10632 10635 10633 10634 10640 10644 10648 10646 10638 10631 10625 10620 10613 10607 10605 10599 10591 10598 10612 10617 10622 10630 10630 10626 10626 10623 10619 10617 10617 10617 10611 10603 10600 10603 10605 10601 10597 10599 10608 10627 10646 10644 10634 10626 10613 10607 10608 10603 10599 10597 10592 10588 10584 10581 10580 10578 10575
10595 10597 10613 10616 10601 10595 10592 10584 10586 10589 10592 10606 10619 10623 10625 10626 10626 10628 10626 10623 10623 10623 10622 10624 10624 10623 10627 10626 10624 10625 10622 10622 10627 10626 10626 10633 10634 10634 10635 10628 10620 10616 10611 10605 10602 10599 10591 10582 10581 10589 10603 10617 10623 10622 10620 10620 10618 10614 10611 10610 10606 10600 10593 10590 10594 10600 10593 10588 10593 10592 10605 10636 10640 10624 10613 10605 10601 10601 10595 10592 10591 10585 10580 10577 10574 10572 10568 10564
10578 10584 10597 10595 10585 10583 10577 10571 10576 10579 10584 10601 10610 10608 10607 10610 10615 10617 10615 10613 10612 10612 10612 10613 10614 10613 10614 10614 10614 10614 10611 10612 10617 10618 10618 10623 10625 10624 10622 10615 10610 10608 10602 10596 10595 10592 10581 10571 10569 10574 10588 10604 10614 10617 10616 10614 10612 10609 10606 10603 10597 10592 10591 10583 10580 10589 10586 10581 10588 10581 10586 10622 10633 10610 10598 10598 10595 10591 10585 10582 10582 10578 10573 10569 10565 10562 10558 10554
10564 10570 10576 10573 10571 10571 10562 10560 10568 10570 10577 10591 10592 10589 10592 10597 10603 10606 10606 10603 10600 10600 10601 10602 10603 10602 10601 10603 10603 10602 10602 10602 10606 10610 10609 10611 10616 10615 10608 10604 10601 10597 10593 10589 10587 10580 10569 10561 10561 10563 10573 10590 10604 10609 10610 10607 10603 10598 10597 10596 10591 10589 10587 10577 10573 10578 10576 10578 10582 10568 10571 10609 10620 10596 10589 10592 10586 10580 10575 10571 10572 10570 10566 10560 10555 10552 10548 10545
10550 10552 10554 10556 10556 10551 10546 10552 10560 10560 10566 10573 10573 10576 10580 10582 10590 10596 10596 10592 10588 10588 10590 10591 10593 10592 10591 10592 10590 10593 10594 10592 10596 10600 10596 10597 10605 10604 10598 10595 10591 10585 10583 10581 10574 10567 10559 10554 10553 10554 10563 10581 10595 10599 10599 10595 10589 10586 10589 10589 10584 10582 10577 10571 10570 10567 10566 10576 10574 10553 10560 10593 10599 10584 10584 10584 10574 10568 10564 10560 10562 10561 10556 10551 10547 10542 10539 10534
10533 10533 10536 10542 10539 10532 10532 10542 10546 10545 10551 10558 10559 10563 10565 10566 10575 10582 10580 10577 10577 10578 10579 10581 10582 10581 10581 10580 10580 10584 10585 10581 10581 10582 10583 10587 10592 10593 10590 10583 10578 10575 10572 10567 10561 10554 10549 10547 10548 10548 10555 10569 10584 10589 10585 10578 10575 10578 10582 10580 10575 10573 10569 10564 10563 10560 10560 10562 10556 10546 10554 10569 10575 10576 10578 10570 10556 10553 10553 10551 10550 10548 10544 10541 10538 10533 10528 10522
10511 10512 10518 10527 10526 10519 10520 10524 10526 10531 10542 10545 10543 10546 10549 10553 10560 10564 10562 10563 10569 10570 10567 10568 10570 10570 10571 10571 10572 10574 10573 10569 10563 10562 10573 10580 10579 10579 10577 10570 10566 10563 10558 10554 10549 10542 10539 10540 10545 10548 10548 10554 10567 10575 10570 10562 10562 10568 10570 10569 10567 10566 10562 10556 10555 10560 10555 10537 10532 10546 10549 10540 10549 10570 10572 10556 10539 10536 10541 10541 10535 10531 10530 10529 10526 10521 10515 10509
10491 10493 10501 10512 10511 10506 10507 10507 10507 10518 10530 10528 10523 10528 10535 10539 10544 10547 10549 10554 10558 10556 10553 10556 10560 10561 10563 10563 10560 10559 10560 10554 10547 10551 10564 10568 10563 10561 10559 10555 10553 10549 10546 10544 10539 10533 10529 10530 10541 10546 10541 10541 10550 10558 10556 10548 10549 10555 10555 10555 10560 10559 10554 10550 10552 10558 10547 10519 10515 10537 10537 10519 10530 10556 10558 10540 10527 10526 10529 10527 10520 10515 10515 10514 10511 10507 10502 10495
10476 10481 10489 10493 10490 10489 10494 10496 10494 10499 10507 10506 10505 10511 10519 10526 10532 10536 10540 10542 10541 10541 10541 10544 10548 10550 10551 10550 10545 10543 10544 10540 10537 10547 10555 10551 10545 10542 10540 10538 10536 10535 10537 10534 10529 10526 10518 10520 10534 10536 10528 10530 10537 10543 10542 10532 10532 10540 10538 10541 10551 10551 10545 10546 10549 10548 10536 10513 10506 10520 10517 10505 10519 10541 10534 10516 10514 10519 10516 10511 10507 10503 10500 10498 10495 10492 10488 10482
10461 10467 10475 10476 10472 10473 10481 10485 10479 10475 10480 10487 10489 10493 10504 10514 10521 10525 10525 10523 10525 10529 10528 10528 10536 10539 10536 10535 10529 10523 10527 10531 10534 10541 10540 10531 10527 10524 10519 10519 10522 10525 10526 10524 10522 10518 10508 10511 10525 10523 10512 10516 10528 10534 10527 10513 10514 10523 10521 10529 10544 10542 10534 10537 10537 10534 10525 10509 10504 10507 10496 10491 10512 10524 10506 10492 10500 10506 10498 10494 10494 10491 10486 10482 10479 10477 10474 10468
10448 10452 10459 10458 10453 10455 10462 10468 10464 10457 10462 10468 10468 10477 10492 10500 10505 10510 10507 10504 10509 10512 10510 10514 10526 10527 10518 10514 10508 10507 10520 10528 10526 10525 10520 10509 10507 10506 10503 10507 10513 10514 10513 10513 10512 10507 10500 10502 10512 10509 10497 10502 10521 10525 10507 10494 10498 10500 10503 10524 10540 10530 10518 10519 10520 10520 10515 10501 10498 10495 10480 10485 10508 10506 10482 10476 10486 10488 10481 10477 10477 10477 10473 10466 10462 10460 10457 10453
10436 10436 10440 10436 10431 10436 10443 10448 10448 10443 10445 10450 10454 10467 10478 10481 10489 10493 10487 10485 10490 10493 10495 10502 10510 10508 10499 10494 10493 10502 10516 10515 10504 10502 10499 10490 10488 10492 10495 10499 10501 10499 10499 10501 10500 10495 10492 10492 10496 10493 10479 10486 10511 10508 10488 10483 10480 10474 10491 10525 10530 10508 10497 10505 10511 10510 10499 10485 10481 10480 10474 10484 10499 10492 10473 10466 10468 10470 10467 10463 10463 10464 10460 10451 10446 10444 10441 10437
10422 10419 10421 10417 10410 10414 10423 10429 10428 10424 10427 10438 10449 10458 10460 10461 10471 10472 10463 10467 10478 10481 10480 10484 10488 10484 10479 10481 10489 10499 10500 10489 10480 10482 10481 10476 10476 10480 10483 10485 10486 10485 10486 10487 10486 10485 10482 10478 10480 10477 10463 10469 10491 10488 10474 10468 10458 10462 10493 10513 10502 10486 10483 10493 10502 10498 10481 10465 10461 10465 10469 10477 10483 10479 10466 10454 10454 10458 10453 10450 10453 10451 10443 10436 10432 10431 10429 10424